Location: Glion
(46.4330°N, 6.9246°E)
Time: 16:47:05
(UTC+00:00)

Cosmos 2322 Rocket - Pass Details

Date: 03 March 2021
Orbit: 832 x 852 km, 71.0° (Epoch: 22 April)

Event Time Altitude Azimuth Distance (km) Brightness Sun altitude
Rises 19:06:10 0° 226° (SW) 3,365 5.8 -18.8°
Reaches altitude 10° 19:08:43 10° 233° (SW) 2,436 5.1 -19.2°
Maximum altitude 19:14:01 44° 304° (NW) 1,150 3.3 -20.1°
Drops below altitude 10° 19:19:23 10° 16° (NNE) 2,456 4.6 -21.0°
Sets 19:21:58 0° 23° (NNE) 3,397 5.3 -21.4°
